Tracking 17857 objects as of 29-September-2016
HD Live streaming from Space Station
objects crossing your sky now

CZ-3A DEB

Track CZ-3A DEB now!


NORAD ID: 35557
Int'l Code: 2007-003R
Perigee: 348.3 km
Apogee: 29,571.5 km
Inclination: 22.8 °
Period: 516.7 minutes
Semi major axis: 21330 km
RCS: 0.1574 m2 (medium)
Launch date: February 2, 2007
Source: People's Republic of China (PRC)
Launch site: Xichang Space Center, China (XSC)

Note: This is SATELLITE DEBRIS
Your satellite tracking list
Your tracking list is empty





NASA's NSSDC Master Catalog

Two Line Element Set (TLE):
1 35557U 07003R   16269.95561100  .00004366  00000-0  37920-2 0  9998
2 35557  22.8041 148.9916 6849969 294.3550  10.9095  2.78669453 72071
Source of the keplerian elements: AFSPC

N2YO: 1768